カタログに戻る

TITAN 3C TRANSTAGE DEB

運用中VLEO
NORAD 1835·DEBRIS·🇺🇸 United States

打ち上げ Oct 15, 1965 から Cape Canaveral Space Force Station

Loading…

次のパス (今後24時間)

TLE

最新Source: Space-Track

元期: Sep 14, 2026, 21:06 UTC

1 01835U 65082EA  26257.87956026  .00003782  00000-0  22584-3 0  9997
2 01835  32.3944 172.1707 0011505   9.9824 350.1067 15.09726780260930

AllMySatでTITAN 3C TRANSTAGE DEBをリアルタイム追跡

Download on the App Store